Regional Weather Roundup
Issued by NWS

Home | Current Version | Previous Version | Graphics & Text | Print | Product List | Glossary Off
Versions: 1 2 3 4 5 6 7 8 9 10 11 12 13 14 15 16 17 18 19 20 21 22 23 24 25 26 27 28 29 30 31 32 33 34 35 36 37 38 39 40 41 42 43 44 45 46 47 48 49 50

000
ASUS43 KDMX 211201
RWRIA

WEATHER ROUNDUP FOR IOWA
NATIONAL WEATHER SERVICE DES MOINES IA
600 AM CST WED FEB 21 2018

NOTE: "FAIR" INDICATES FEW OR NO CLOUDS BELOW 12,000 FEET WITH NO
SIGNIFICANT WEATHER AND/OR OBSTRUCTIONS TO VISIBILITY.

* - THESE STATIONS ARE NOT NWS STATIONS...THUS NOT UNDER NWS
QUALITY CONTROL.  THEY ALSO DO NOT REPORT WEATHER SUCH
AS PRECIPITATION OR FOG.

IAZ001>003-012>014-020>022-031>034-043>046-211300-
   NORTHWEST IOWA

CITY           SKY/WX    TMP DP  RH WIND       PRES   REMARKS
CARROLL *      CLEAR      7   3  85 N9        30.55S WCI  -7
CHEROKEE *     PTCLDY     3  -1  82 CALM      30.55S
DENISON *      CLEAR      7   1  78 N5        30.56S WCI  -2
LE MARS *      CLOUDY     1  -4  78 CALM      30.56R
ORANGE CITY *  CLOUDY    -2  -6  84 CALM      30.52R
SHELDON *      CLOUDY    -2  -6  84 CALM      30.50S
SIOUX CITY     CLEAR      1  -3  83 W6        30.57R WCI -10
6HR MIN TEMP:   0; 6HR MAX TEMP:   7;

SPENCER        MIX PCPN   1  -4  79 NW7       30.52S WCI -12
6HR MIN TEMP:   1; 6HR MAX TEMP:   6; 6HR PCP: TRACE;

STORM LAKE *   CLEAR      3   0  85 NW8       30.53R WCI -10
$$

IAZ055>058-069>071-079>083-090>094-211300-
   SOUTHWEST IOWA

CITY           SKY/WX    TMP DP  RH WIND       PRES   REMARKS
ATLANTIC *     CLEAR      9   5  85 N5        30.57R WCI   0
AUDUBON *      CLEAR      9   3  78 N9        30.54R WCI  -5
CLARINDA *     CLOUDY    12   7  79 N8        30.60R WCI   1
COUNCIL BLFS * CLEAR      9   7  92 NW7       30.56R WCI  -3
CRESTON *      CLOUDY    10   5  79 N8        30.56R WCI  -1
HARLAN  *      CLEAR      7   5  92 N7        30.59R WCI  -5
LAMONI         CLOUDY    12   7  80 N10       30.53R WCI  -1
6HR MIN TEMP:  12; 6HR MAX TEMP:  18;

RED OAK *      CLOUDY     9   5  85 N6        30.59R WCI  -1
SHENANDOAH *   CLOUDY    10   7  85 N6        30.60R WCI   1
$$

IAZ047>049-059>061-072>074-084-211300-
   CENTRAL IOWA

CITY           SKY/WX    TMP DP  RH WIND       PRES   REMARKS
AMES           CLEAR     11   5  77 N12       30.56R WCI  -3
6HR MIN TEMP:  11; 6HR MAX TEMP:  15;

ANKENY *       CLEAR     12   7  79 N10       30.57R WCI  -1
BOONE *        CLEAR     10   5  79 MISG      30.53S
CHARITON *     CLOUDY    14  10  85 NW9       30.55R WCI   2
DES MOINES     PTCLDY    13   6  74 N8        30.56R WCI   2
6HR MIN TEMP:  13; 6HR MAX TEMP:  16;

GRINNELL*      PTCLDY    14   9  80 N10       30.54R WCI   1
KNOXVILLE *    PTCLDY    14   7  73 N13       30.54R WCI   0
MARSHALLTOWN   CLOUDY    11   6  81 N13       30.53R WCI  -4
6HR MIN TEMP:  11; 6HR MAX TEMP:  15;

NEWTON *       PTCLDY    12   7  79 N10G17    30.55R WCI  -1
PELLA *        PTCLDY    14   9  80 N9        30.56R WCI   2
PERRY *        FAIR      10   6  81 N8        30.56S WCI  -2
$$

IAZ004>006-015-016-023>025-035-036-211300-
   NORTH CENTRAL IOWA

CITY           SKY/WX    TMP DP  RH WIND       PRES   REMARKS
CLARION *      CLEAR      7   7 100 NW6       30.55R WCI  -3
ESTHERVILLE    CLEAR      1  -4  79 W8        30.51R WCI -13
6HR MIN TEMP:   1; 6HR MAX TEMP:   5;

FORT DODGE *   CLEAR      5   1  83 NW3       30.56R
MASON CITY     CLEAR      6   1  80 NW12      30.54R WCI  -9
6HR MIN TEMP:   6; 6HR MAX TEMP:  11;

FOREST CITY *  FAIR       9   3  78 NW3       30.53R
WEBSTER CITY * CLEAR      7   1  78 NW7       30.54R WCI  -5
IOWA FALLS *   FAIR      11   6  81 NW6       30.55R WCI   1
$$

IAZ007>011-017>019-026>030-037>042-050>054-066-211300-
   NORTHEAST IOWA

CITY           SKY/WX    TMP DP  RH WIND       PRES   REMARKS
CEDAR RAPIDS   FAIR      16   8  71 NW13      30.49R WCI   2
6HR MIN TEMP:  16; 6HR MAX TEMP:  20;

CHARLES CITY * FAIR      10   9  92 NW8       30.53R WCI  -1
CLINTON *        N/A     20  15  81 N15       30.48  WCI   6
DECORAH *      FAIR       9   5  85 NW10      30.48R WCI  -6
DUBUQUE        FAIR      16   9  74 N10       30.46R WCI   4
6HR MIN TEMP:  16; 6HR MAX TEMP:  20;

MONTICELLO *   FAIR      16  10  79 NW12      30.50R WCI   3
OELWEIN *      FAIR      12  10  92 NW10G16   30.52R WCI  -1
WATERLOO       FAIR      11   5  77 NW13      30.54R WCI  -4
6HR MIN TEMP:  11; 6HR MAX TEMP:  15;

$$

IAZ064-065-067-068-078-211300-
   EAST CENTRAL IOWA

CITY           SKY/WX    TMP DP  RH WIND       PRES   REMARKS
DAVENPORT      FAIR      21  13  71 NW15      30.49R WCI   8
6HR MIN TEMP:  21; 6HR MAX TEMP:  25;

IOWA CITY      FAIR      19  10  68 NW10      30.52R WCI   7
6HR MIN TEMP:  19; 6HR MAX TEMP:  22;

MT. PLEASANT * MOCLDY    19  14  79 N13       30.50R WCI   7
MUSCATINE *    FAIR      21  14  73 N13       30.52R WCI   9
QUAD CITIES    FAIR      22  14  71 NW9       30.47R WCI  12
6HR MIN TEMP:  22; 6HR MAX TEMP:  25;

$$

IAZ062-063-075>077-085>089-095>099-211300-
   SOUTHEAST IOWA

CITY           SKY/WX    TMP DP  RH WIND       PRES   REMARKS
BURLINGTON     CLOUDY    21  14  74 NW10      30.49R WCI  10
6HR MIN TEMP:  20; 6HR MAX TEMP:  24;

FAIRFIELD *    CLOUDY    18  10  73 N14       30.50S WCI   4
FORT MADISON * PTCLDY    19  16  86 NW12      30.50R WCI   7
KEOKUK *       CLOUDY    21  16  79 N13G18    30.49R WCI   9
OSKALOOSA *    FAIR      16  11  82 N10       30.53R WCI   3
OTTUMWA        PTCLDY    17  10  74 N14       30.52R WCI   3
6HR MIN TEMP:  17; 6HR MAX TEMP:  20;

WASHINGTON *   CLOUDY    18  14  86 NW16      30.52R WCI   3
$$

ABBREVIATIONS USED IN REMARKS
   TC - TEMPERATURES IN CELSIUS
  WCI - WIND CHILL INDEX
   HX - HEAT INDEX
  VSB - VISIBILITY
$$





USA.gov is the U.S. government's official web portal to all federal, state and local government web resources and services.